Location: Banff
(51.1667°N, 115.5667°W)
Time: 14:13:35
(UTC+00:00)

Courier 1B Rocket - Pass Details

Date: 05 December 2020
Orbit: 920 x 1202 km, 28.2° (Epoch: 17 January)

Event Time Altitude Azimuth Distance (km) Brightness Sun altitude
Rises 12:19:09 0° 225° (SW) 4,032 - -28.8°
Exits shadow 12:23:56 - 199° (SSW) 3,156 7.5 -28.0°
Reaches altitude 10° 12:24:23 10° 196° (SSW) 3,109 7.5 -28.0°
Maximum altitude 12:26:47 12° 178° (S) 2,995 7.6 -27.6°
Drops below altitude 10° 12:29:12 10° 159° (SSE) 3,127 7.9 -27.2°
Sets 12:34:31 0° 130° (SE) 4,088 9.0 -26.4°
